Location: Aulagny
(45.1643°N, 4.3096°E)
Time: 17:22:10
(UTC+00:00)

Cosmos 2228 - Pass Details

Date: 21 October 2019
Orbit: 588 x 619 km, 82.5° (Epoch: 22 November)

Event Time Altitude Azimuth Distance (km) Brightness Sun altitude
Rises 17:36:49 0° 201° (SSW) 2,872 6.9 -9.3°
Reaches altitude 10° 17:39:06 10° 207° (SSW) 1,968 6.1 -9.7°
Maximum altitude 17:43:19 48° 282° (WNW) 804 4.2 -10.4°
Drops below altitude 10° 17:47:32 10° 358° (N) 1,966 5.6 -11.1°
Sets 17:49:49 0° 4° (N) 2,869 6.4 -11.6°
